Wetbulb
56.62 53.85 52.52 54.94 56.74 57.57 57.30 55.66 54.46 56.15 57.49 56.66 58.64 58.91 61.51 64.45 64.52 64.53 65.94 66.45 66.66 67.29 69.06 70.55 71.05 72.35 72.68 74.04 75.23 76.39 77.26 79.06 78.34 76.88 75.85 75.71 75.12 77.03 77.34 78.07 79.36 80.07 79.16 79.35
54.06 51.49 55.84 57.77 57.77 56.11 56.74 55.38 54.69 56.47 57.20 56.49 58.29 58.50 60.68 62.57 63.98 65.08 65.72 66.66 67.08 67.85 69.06 70.04 71.28 71.74 72.59 73.37 75.10 76.16 76.85 78.89 78.02 77.52 77.64 78.11 77.30 75.56 75.90 74.05 73.18 74.88 78.90 77.33
51.98 54.66 57.05 57.03 56.54 55.10 55.43 54.99 55.38 54.54 55.85 56.64 56.61 56.66 59.23 61.39 63.31 65.28 66.43 67.82 68.06 68.22 68.71 70.87 71.41 71.63 72.13 72.78 74.38 75.89 76.80 77.29 78.32 77.81 78.17 78.98 79.67 78.44 74.09 66.68 66.48 66.52 73.38 67.40
53.44 57.41 55.87 56.36 55.68 56.03 53.90 57.54 56.66 55.88 54.32 50.04 55.99 49.65 58.51 59.99 60.63 63.55 64.77 66.68 67.53 68.41 70.24 71.57 72.00 72.70 72.81 73.83 75.23 76.03 76.91 77.85 77.94 79.01 77.16 77.89 75.81 74.83 73.40 67.33 66.95 67.85 77.60 77.85
53.16 54.71 55.46 55.09 55.95 57.61 55.66 58.39 56.35 55.48 53.95 53.77 54.03 51.44 55.88 60.18 59.09 60.76 63.72 65.83 67.09 69.16 69.34 69.85 71.12 72.93 73.65 74.09 75.04 76.39 78.25 78.45 78.75 78.26 78.61 77.55 77.71 77.15 77.63 73.50 75.26 77.16 79.40 79.40
55.81 58.30 58.93 57.53 58.30 58.12 58.41 56.43 56.23 55.17 53.61 49.04 53.29 52.85 54.65 56.26 59.89 60.94 62.76 65.40 66.90 68.39 69.00 70.65 72.23 73.72 73.71 74.61 74.94 76.22 78.09 78.68 79.16 79.54 78.78 78.75 79.54 79.40 78.27 78.98 75.37 76.88 75.71 76.65
55.00 55.84 58.59 58.79 56.31 58.02 56.60 54.23 49.34 48.34 48.37 48.11 55.13 52.61 55.51 58.98 60.96 61.67 62.91 64.34 66.47 68.59 68.93 69.94 71.21 72.47 73.50 73.73 74.64 75.86 77.75 78.25 79.27 78.94 78.97 79.25 79.20 79.73 79.77 79.17 76.19 75.49 75.63 75.88
51.50 50.37 55.94 58.40 56.61 55.28 54.89 54.10 50.31 47.73 48.07 49.62 55.93 51.29 54.61 61.32 62.65 62.80 62.75 64.38 65.79 66.69 68.95 69.12 70.34 72.47 73.10 73.78 74.65 75.62 77.72 78.03 78.93 79.17 79.13 79.81 80.18 78.90 78.53 79.22 77.57 77.22 76.38 76.58
52.57 51.96 58.01 57.31 58.04 57.90 55.09 52.39 55.98 52.57 53.79 51.25 53.16 56.20 59.78 61.31 60.58 61.56 62.20 62.56 64.03 66.59 67.13 69.55 70.09 71.22 71.71 72.49 73.69 75.08 77.57 78.11 78.61 78.67 78.92 79.23 79.89 79.67 78.25 80.61 80.07 78.82 78.95 74.83
56.13 52.57 56.63 56.65 57.86 57.58 56.74 57.85 51.68 53.11 49.35 47.95 50.84 52.94 52.92 58.11 58.69 61.82 62.60 63.30 65.03 67.85 68.12 69.18 70.10 70.33 71.11 71.70 73.52 74.81 77.95 77.91 78.66 78.59 78.92 79.01 79.35 79.91 80.31 80.45 79.72 79.43 77.16 76.54
56.57 55.26 55.27 56.72 54.64 53.48 54.44 54.00 55.34 54.54 53.01 49.94 48.85 51.30 61.02 60.70 60.30 61.08 62.79 64.17 66.62 67.70 68.29 69.30 70.19 70.16 70.46 70.28 72.49 73.69 76.13 77.44 77.95 78.81 78.93 78.93 78.93 79.94 80.28 79.22 79.33 77.37 77.39 76.32
57.08 54.92 52.74 53.69 57.16 57.85 56.61 55.03 55.92 51.78 52.52 54.28 52.05 51.21 58.90 59.03 58.92 59.36 61.04 64.98 67.16 68.49 68.44 71.51 69.80 68.76 68.19 68.04 69.99 71.23 73.05 76.97 78.00 78.22 78.39 77.97 77.33 75.69 75.79 77.77 76.99 76.19 75.46 75.41
57.80 54.16 50.19 52.30 55.16 56.82 54.24 55.39 55.66 55.88 55.93 54.94 50.66 51.32 59.76 60.09 60.29 61.21 60.37 62.40 67.18 69.10 71.11 71.62 67.89 67.74 67.53 66.53 67.19 73.92 74.61 77.35 77.17 67.62 74.34 75.18 75.88 74.52 71.85 70.03 73.26 75.48 74.99 73.60
61.25 54.78 54.28 49.68 53.77 55.78 53.87 53.80 55.50 55.57 53.12 53.51 54.23 55.14 58.68 59.40 60.21 61.59 62.47 63.54 64.77 69.93 71.55 71.35 70.22 66.26 68.68 70.71 76.44 76.57 73.12 73.47 75.71 74.83 74.68 69.13 67.91 70.19 70.54 73.82 75.07 74.76 74.29 73.03
56.96 55.90 55.87 53.86 54.71 56.05 55.16 54.17 54.29 54.13 55.02 53.27 54.94 56.71 59.38 62.05 62.12 62.32 63.56 65.17 65.82 67.65 71.42 73.04 70.32 68.00 67.14 72.13 71.55 72.78 70.28 72.28 73.30 70.86 70.01 67.77 68.56 73.38 73.89 74.08 74.02 73.79 73.40 72.63
56.81 55.00 56.26 53.11 54.47 54.86 54.68 55.36 54.93 54.30 54.74 55.61 55.61 56.47 61.77 64.03 62.06 61.68 62.78 63.17 64.28 66.18 68.36 72.73 70.80 69.35 67.91 68.73 71.34 72.23 72.17 72.46 71.93 70.30 70.03 70.71 73.55 73.56 73.60 73.28 72.81 72.43 72.18 71.74
56.43 55.93 55.35 51.45 53.96 53.89 52.02 54.82 54.95 55.39 56.56 55.84 53.66 58.73 62.09 59.89 60.58 61.57 62.28 62.80 63.80 66.32 70.11 72.40 69.88 69.35 70.70 71.44 71.57 69.79 70.68 71.39 70.68 70.47 70.60 70.90 71.33 69.96 69.84 69.87 69.30 68.79 69.30 69.76
58.31 59.62 56.66 52.10 54.72 47.23 54.86 58.40 57.98 56.77 57.26 58.23 59.72 60.58 62.38 63.07 63.42 64.12 64.70 63.78 66.63 68.65 69.54 70.42 69.66 70.03 69.76 69.75 69.55 69.95 69.11 69.20 68.69 68.91 68.90 69.14 68.87 68.35 68.85 68.84 68.52 68.86 68.18 67.18
57.82 58.29 53.18 51.41 50.53 53.16 54.42 56.99 56.33 55.61 55.66 58.71 60.23 60.85 60.94 63.38 64.17 63.88 66.58 69.06 69.28 69.43 69.53 69.41 69.60 68.95 68.58 67.95 68.27 68.22 68.09 67.71 67.32 67.16 66.97 67.40 67.41 67.00 66.92 66.75 67.08 67.46 67.11 66.54
58.36 60.05 55.16 53.57 49.18 48.02 56.77 58.66 60.78 59.69 54.32 62.07 62.09 61.22 60.32 62.22 57.47 61.91 68.01 68.40 68.33 68.49 68.91 68.25 68.28 67.55 67.25 67.76 68.61 68.01 67.10 66.97 66.02 65.79 66.36 66.96 66.85 66.78 66.50 66.28 66.67 67.55 66.69 65.80
56.12 58.35 53.58 53.50 51.11 52.92 58.86 60.35 61.34 53.35 56.77 62.33 62.76 63.33 62.73 60.66 64.22 66.89 67.65 66.69 66.79 67.25 67.32 67.76 67.20 66.48 67.38 67.78 67.65 66.16 66.33 64.89 65.67 65.70 65.55 65.79 66.07 65.88 66.25 66.40 66.42 65.68 65.35 64.97
55.22 55.05 53.60 55.52 52.94 50.28 61.09 59.80 57.22 64.27 65.41 63.54 63.69 64.82 65.93 66.15 66.31 66.43 66.60 65.86 64.63 64.50 64.38 65.39 66.14 66.21 67.33 66.89 65.84 64.87 63.86 64.62 63.75 63.58 63.77 63.95 64.50 64.68 64.10 65.11 64.97 65.67 64.91 63.96
55.07 58.47 56.31 58.12 57.37 65.36 64.75 63.66 65.03 65.18 64.52 63.62 64.29 67.13 67.03 65.85 65.43 66.06 65.45 65.35 64.62 64.28 64.97 65.11 64.78 65.58 65.15 63.86 62.98 61.95 62.14 62.06 62.11 62.30 62.75 63.04 63.43 64.22 65.65 64.44 64.02 64.14 63.61 62.90
59.05 62.41 58.74 60.20 60.54 62.11 62.51 64.64 65.42 66.46 64.68 64.44 67.01 66.56 66.71 65.85 65.65 64.40 64.54 64.37 64.27 63.77 63.09 63.22 62.64 61.94 62.01 62.59 61.46 60.84 61.13 60.70 59.78 59.37 60.13 61.21 62.44 61.52 62.47 63.27 62.59 62.41 61.91 61.22
58.78 62.30 61.56 56.98 62.87 62.72 63.40 64.14 64.51 64.95 66.54 66.19 66.45 66.20 66.26 65.93 64.20 63.99 63.57 64.43 63.51 62.75 62.84 62.75 61.90 61.45 61.06 61.21 60.57 60.07 59.34 58.20 55.57 56.15 58.11 60.12 59.91 60.34 61.54 61.86 62.39 61.82 63.01 59.11
59.78 60.39 54.85 56.85 63.02 62.87 63.41 65.53 64.69 64.80 64.86 65.47 65.28 65.15 65.42 64.92 63.84 63.50 62.27 62.48 62.15 61.36 61.62 61.03 60.72 59.41 59.23 58.82 59.55 58.88 58.29 57.00 55.76 56.06 56.31 56.82 58.17 59.22 59.32 59.79 60.79 56.62 53.74 51.87
MSLP
1002.21 1001.81 1000.57 999.42 998.78 998.15 997.63 996.88 997.31 998.12 999.20 999.34 1000.04 1001.43 1002.34 1003.08 1004.06 1005.29 1006.57 1007.61 1008.29 1009.02 1009.76 1010.72 1011.40 1012.05 1012.77 1013.48 1014.31 1014.93 1015.36 1015.62 1015.95 1016.37 1016.58 1016.73 1016.90 1016.80 1016.57 1016.18 1015.87 1015.75 1016.23 1017.09
1001.25 1000.64 999.52 998.69 998.17 998.27 997.91 997.15 997.35 998.22 999.11 999.36 999.76 1000.53 1001.61 1002.40 1003.01 1004.08 1005.24 1006.66 1007.43 1008.27 1009.12 1010.11 1010.81 1011.48 1012.23 1013.10 1013.90 1014.63 1015.09 1015.42 1015.86 1016.24 1016.40 1016.41 1016.80 1016.50 1016.24 1016.48 1017.11 1016.11 1014.87 1016.31
1000.04 999.09 998.99 998.34 998.44 998.52 998.17 997.39 997.39 998.01 999.01 999.42 999.23 999.95 1000.96 1001.85 1002.21 1003.00 1004.00 1005.36 1006.39 1007.22 1008.24 1009.37 1010.25 1010.90 1011.57 1012.35 1013.25 1014.08 1014.69 1015.13 1015.54 1015.98 1016.08 1016.29 1016.83 1016.36 1017.43 1018.26 1016.95 1015.96 1013.53 1017.34
999.64 998.40 998.13 998.14 998.40 998.68 997.87 997.62 997.63 997.89 998.57 998.84 999.07 999.16 1000.06 1000.88 1001.60 1002.08 1002.80 1004.00 1004.86 1005.95 1007.26 1008.49 1009.55 1010.31 1010.87 1011.54 1012.42 1013.22 1014.06 1014.66 1015.20 1015.60 1015.81 1015.91 1016.58 1016.54 1016.39 1017.49 1016.62 1016.69 1015.86 1016.34
998.76 998.28 997.84 998.02 998.33 998.23 997.80 997.59 997.96 998.45 998.57 998.65 998.32 998.65 999.03 999.93 1000.81 1001.36 1001.95 1002.67 1003.49 1004.65 1005.92 1007.34 1008.53 1009.47 1010.14 1010.78 1011.50 1012.35 1013.40 1014.13 1014.61 1015.15 1015.46 1015.48 1015.87 1015.81 1015.17 1015.76 1016.17 1015.76 1015.60 1015.72
998.20 998.11 997.83 998.05 998.08 997.99 998.01 998.49 998.77 999.00 998.81 998.47 998.20 998.11 998.17 998.87 999.70 1000.42 1000.99 1001.46 1002.44 1003.57 1004.81 1006.08 1007.58 1008.65 1009.40 1009.91 1010.60 1011.50 1012.55 1013.38 1014.08 1014.42 1014.87 1015.18 1015.29 1015.45 1015.43 1015.53 1015.45 1015.24 1014.76 1015.09
998.12 997.40 997.57 997.94 997.83 997.78 998.15 998.54 998.68 998.76 998.35 997.83 997.35 997.83 998.29 998.01 998.93 999.27 999.64 1000.37 1001.34 1002.44 1003.63 1004.88 1006.09 1007.57 1008.59 1008.97 1009.49 1010.38 1011.52 1012.47 1013.16 1013.71 1014.04 1014.44 1014.70 1014.84 1015.02 1015.07 1014.99 1014.87 1014.61 1014.58
997.50 997.36 997.27 997.25 997.35 997.33 998.04 998.21 997.58 997.00 996.99 996.90 997.50 997.57 997.83 998.51 999.25 999.55 999.75 1000.03 1000.45 1001.35 1002.54 1003.41 1004.48 1005.86 1007.36 1008.16 1008.71 1009.40 1010.47 1011.36 1012.06 1012.59 1013.10 1013.52 1013.94 1014.19 1014.30 1014.27 1014.31 1014.11 1014.10 1014.19
996.61 996.87 996.69 997.09 997.21 997.24 997.82 998.10 997.79 997.48 997.15 997.15 997.19 997.72 998.26 998.57 999.01 999.42 999.93 1000.01 1000.04 1000.51 1001.22 1002.53 1003.74 1005.09 1006.50 1007.67 1008.18 1008.77 1009.71 1010.36 1010.83 1011.19 1011.64 1012.22 1012.85 1013.37 1013.57 1013.75 1014.04 1014.13 1014.06 1014.13
996.18 996.00 995.97 996.49 997.18 997.22 997.05 997.68 997.93 997.66 997.27 996.83 996.98 997.68 997.96 998.66 999.14 999.62 1000.13 1000.08 1000.04 1000.32 1000.54 1002.09 1003.15 1004.46 1005.73 1006.63 1008.08 1008.11 1008.93 1009.25 1009.39 1009.92 1010.64 1011.15 1011.57 1012.14 1012.77 1013.32 1013.66 1014.03 1014.14 1014.34
996.24 995.90 995.35 995.61 996.25 996.79 997.09 997.22 997.44 997.26 997.27 997.18 997.53 998.76 998.82 999.14 999.49 999.94 1000.21 1000.31 1000.35 1000.56 1000.90 1001.65 1002.75 1003.99 1005.54 1006.26 1006.92 1007.21 1006.05 1006.46 1008.31 1010.26 1011.18 1011.64 1011.18 1011.94 1012.33 1012.93 1013.36 1013.83 1014.13 1014.42
996.06 995.87 995.47 995.18 995.96 996.69 996.56 997.07 997.59 997.38 997.80 997.77 998.17 999.18 999.65 1000.12 1000.28 1000.47 1000.45 1000.87 1001.20 1001.23 1001.56 1002.36 1003.29 1004.55 1005.20 1007.85 1006.36 1006.59 1006.60 1006.28 1007.77 1008.35 1008.52 1011.31 1008.88 1010.32 1011.44 1013.18 1013.52 1013.88 1014.07 1014.36
995.55 995.88 995.81 995.41 995.49 996.26 996.70 996.87 997.38 997.78 997.92 997.95 998.15 999.11 999.67 1000.32 1000.84 1001.11 1001.11 1001.34 1001.88 1002.20 1002.75 1004.07 1006.02 1007.09 1010.25 1010.90 1007.53 1006.42 1007.16 1007.18 1007.93 1011.20 1009.07 1009.61 1010.76 1011.51 1012.08 1012.51 1013.16 1013.55 1013.70 1014.14
995.15 995.59 995.78 995.13 995.06 995.43 996.13 996.66 996.69 997.11 997.50 997.70 998.12 998.96 999.57 1000.29 1001.07 1001.74 1001.90 1002.13 1002.45 1002.85 1003.66 1005.56 1007.22 1008.39 1009.39 1009.46 1007.08 1006.76 1008.38 1008.78 1009.39 1010.07 1011.13 1012.32 1014.63 1014.27 1014.12 1013.53 1013.31 1013.39 1013.53 1013.72
995.20 995.33 995.84 995.91 995.42 994.99 995.44 996.08 996.55 996.55 996.90 997.15 997.74 998.53 999.98 1000.98 1001.80 1002.44 1002.77 1003.10 1003.25 1003.54 1004.11 1005.38 1007.28 1008.68 1010.98 1008.55 1010.20 1008.41 1009.78 1010.62 1010.15 1010.59 1011.83 1012.97 1014.30 1014.62 1014.09 1013.72 1013.49 1013.19 1013.17 1013.15
994.99 995.57 996.22 995.95 995.62 995.17 994.57 994.79 995.61 996.33 996.58 996.95 997.73 999.04 1000.21 1001.31 1002.55 1002.91 1003.31 1003.56 1003.99 1004.75 1005.05 1006.37 1008.12 1008.02 1010.06 1010.27 1009.96 1009.26 1011.06 1011.57 1011.48 1011.95 1012.78 1013.41 1013.25 1014.19 1013.71 1013.26 1012.95 1012.79 1012.75 1012.72
995.16 995.64 996.35 996.15 996.16 995.47 994.52 994.07 994.56 995.48 996.08 997.04 998.02 999.33 1001.01 1002.16 1002.99 1003.56 1003.75 1003.84 1004.76 1005.54 1006.40 1007.55 1009.29 1009.82 1009.62 1010.01 1010.27 1011.57 1012.37 1012.26 1012.21 1012.92 1013.31 1013.47 1013.50 1013.39 1013.18 1013.04 1012.94 1012.93 1012.83 1012.68
994.96 995.94 996.32 996.47 996.68 995.41 994.41 994.21 994.42 994.94 995.69 996.46 998.31 1000.07 1001.53 1002.87 1003.95 1004.64 1004.31 1004.66 1005.72 1006.75 1007.81 1008.71 1009.73 1010.65 1011.29 1011.93 1012.39 1012.60 1012.50 1012.84 1013.31 1013.51 1013.55 1013.55 1013.48 1013.40 1013.25 1013.10 1013.06 1012.87 1012.78 1012.64
994.56 995.99 996.31 996.33 996.18 995.67 994.87 994.34 994.55 995.11 995.97 996.69 998.73 1000.59 1002.14 1003.53 1004.55 1005.33 1005.58 1006.05 1007.02 1008.18 1009.18 1010.00 1010.72 1011.45 1012.00 1012.52 1012.95 1013.22 1013.55 1013.82 1013.81 1013.86 1013.93 1013.88 1013.80 1013.67 1013.52 1013.27 1013.05 1012.75 1012.45 1012.27
994.08 995.34 996.37 996.44 996.05 995.16 994.86 994.55 994.97 995.74 996.38 997.30 998.74 1000.46 1001.89 1003.25 1004.60 1006.41 1007.13 1007.80 1008.66 1009.55 1010.22 1010.79 1011.53 1012.34 1013.07 1013.61 1013.86 1013.94 1014.07 1014.11 1014.29 1014.45 1014.37 1014.19 1013.97 1013.67 1013.46 1013.20 1012.83 1012.44 1012.25 1011.96
994.19 994.76 995.35 996.11 996.12 995.74 995.35 994.85 995.16 996.33 997.22 997.42 998.98 1000.49 1001.83 1003.65 1004.90 1006.88 1008.15 1009.15 1009.95 1010.69 1011.24 1011.67 1012.27 1013.01 1013.62 1014.09 1014.28 1014.42 1014.54 1014.83 1014.94 1014.91 1014.82 1014.50 1014.20 1013.95 1013.40 1012.94 1012.69 1012.33 1012.03 1011.75
994.60 995.18 995.34 996.08 996.16 995.75 995.43 995.95 996.82 997.60 998.02 998.94 999.99 1001.19 1003.12 1004.98 1006.35 1007.56 1008.85 1010.01 1010.94 1011.46 1011.86 1012.16 1012.72 1013.33 1013.96 1014.57 1014.88 1015.03 1015.26 1015.54 1015.59 1015.48 1015.07 1014.69 1014.28 1013.75 1013.21 1012.88 1012.46 1011.95 1011.72 1011.42
994.40 994.94 995.26 996.25 995.98 996.17 996.45 997.55 998.21 998.60 999.31 1000.05 1001.19 1002.72 1004.21 1005.75 1007.03 1008.41 1009.56 1010.57 1011.38 1012.08 1012.57 1012.84 1013.24 1013.82 1014.72 1015.36 1015.75 1015.72 1016.07 1016.05 1015.82 1015.44 1015.05 1014.64 1014.15 1013.46 1012.80 1012.39 1011.84 1011.50 1011.31 1010.91
993.38 994.14 994.94 996.28 997.39 996.98 998.07 998.57 998.92 999.38 999.82 1000.90 1002.22 1003.74 1004.75 1006.11 1007.74 1009.11 1010.29 1011.18 1011.99 1012.71 1013.23 1013.79 1014.19 1014.70 1015.12 1015.53 1015.89 1016.10 1016.33 1016.31 1016.17 1015.82 1015.30 1014.57 1013.73 1013.16 1012.66 1012.15 1011.51 1011.44 1011.04 1011.14
992.66 995.58 995.14 996.45 997.69 998.25 998.59 999.17 999.67 1000.18 1001.16 1002.05 1003.23 1004.29 1005.44 1006.81 1008.41 1009.80 1011.00 1011.91 1012.82 1013.57 1013.93 1014.27 1014.77 1015.13 1015.42 1015.82 1015.98 1016.27 1016.51 1016.67 1016.55 1016.12 1015.39 1014.47 1013.93 1013.42 1012.64 1012.28 1011.81 1011.47 1011.31 1011.62
993.41 994.18 995.82 997.22 998.82 998.62 999.30 999.98 1000.60 1001.38 1002.29 1003.32 1004.31 1005.44 1006.57 1007.72 1009.15 1010.51 1011.84 1012.76 1013.47 1014.00 1014.41 1014.74 1015.18 1015.60 1015.80 1016.08 1016.17 1016.60 1016.89 1016.97 1016.61 1016.11 1015.50 1015.10 1014.41 1013.72 1013.19 1012.57 1011.89 1011.57 1011.59 1011.81
Wind_Speed
15 12 15 17 17 11 14 9 11 13 14 11 22 18 16 20 19 18 16 15 16 16 16 16 16 14 15 13 12 10 8 7 6 5 6 6 5 4 3 5 7 3 6 3
15 15 18 16 10 2 10 10 13 13 8 11 19 19 17 14 19 20 19 17 17 17 17 16 15 15 15 14 13 12 10 8 7 6 5 4 0 3 3 5 12 4 7 4
18 16 16 16 3 7 9 12 11 12 9 10 11 17 19 16 12 19 20 19 17 18 18 17 16 15 15 15 14 13 12 11 9 9 5 3 2 5 6 7 7 15 5 11
17 19 16 7 9 10 13 11 5 9 13 12 13 8 18 18 15 19 19 21 20 19 17 16 17 16 15 15 15 14 13 11 10 9 7 6 5 4 6 7 6 11 12 9
18 17 9 10 13 16 14 8 2 6 9 12 15 8 17 19 17 15 18 21 20 20 19 19 19 17 16 15 15 14 14 13 10 11 9 7 6 6 6 8 13 8 6 9
18 16 11 15 14 14 12 2 5 8 11 12 15 9 16 16 19 19 19 20 19 21 20 20 17 17 15 15 15 16 15 13 12 11 12 10 6 5 3 3 2 3 2 4
18 19 16 13 15 16 9 8 7 9 9 11 16 9 10 9 17 8 17 19 19 19 20 20 20 18 16 16 16 15 17 15 14 13 12 12 10 7 6 4 5 4 3 2
16 15 14 16 20 14 11 15 11 5 6 10 9 5 3 17 11 3 4 13 20 19 19 22 23 21 19 18 16 16 18 16 15 14 14 11 10 7 7 7 7 4 0 1
16 19 20 19 16 12 13 14 19 15 16 8 11 8 11 8 4 8 2 7 12 21 19 19 20 20 19 16 16 15 17 16 15 15 13 12 10 10 8 4 5 4 2 2
17 13 20 21 15 20 18 14 13 7 11 8 7 11 8 12 8 8 1 8 9 12 18 18 18 19 18 17 14 15 16 16 15 15 13 12 12 10 7 5 5 2 2 2
22 18 13 20 17 19 16 12 10 13 9 7 4 8 12 10 9 6 3 2 7 9 13 15 16 19 16 16 18 19 21 21 16 12 11 11 12 10 6 5 2 2 2 2
24 12 14 19 16 15 15 16 14 10 8 10 5 10 15 9 8 4 5 7 7 12 8 4 6 8 15 19 13 14 10 15 15 16 12 11 17 8 7 3 1 4 4 4
20 16 14 18 19 17 17 18 19 14 12 11 9 10 14 9 9 7 5 5 3 7 10 10 17 25 11 5 33 14 14 8 7 11 5 12 5 7 5 5 5 4 4 6
14 18 17 14 15 17 21 21 19 18 12 13 11 14 15 13 13 10 6 3 3 8 6 18 11 17 15 26 2 11 15 11 7 6 9 16 14 10 4 6 4 5 6 8
17 16 19 22 22 17 18 21 20 18 17 15 4 5 13 11 10 8 6 4 5 4 7 5 11 14 3 8 13 12 13 9 11 13 11 7 5 6 6 6 7 8 9 9
16 14 16 22 21 23 19 24 21 22 22 12 14 11 16 14 10 10 7 4 3 4 8 10 15 11 13 12 6 9 11 9 9 8 6 2 1 5 6 6 7 8 10 9
14 13 13 17 22 21 21 14 21 19 13 16 14 13 16 13 10 7 6 6 3 4 9 11 17 10 9 7 11 12 8 7 8 7 6 5 4 6 7 8 9 10 11 10
15 13 12 14 15 24 16 13 15 13 14 16 16 17 15 13 11 8 5 6 10 11 10 10 12 11 13 11 9 7 7 7 5 5 6 7 8 8 8 8 9 9 9 11
20 14 13 12 15 15 24 18 14 14 13 12 22 18 17 16 14 10 9 12 15 15 13 12 11 12 11 10 8 6 6 6 5 8 8 9 9 9 10 10 10 11 10 10
22 18 12 12 17 20 14 14 11 11 10 13 19 15 17 13 6 10 13 15 15 13 10 10 11 10 8 7 5 5 6 6 8 8 8 9 9 10 10 11 11 9 10 11
9 8 17 14 13 15 3 8 9 14 5 14 16 13 14 8 5 16 15 14 13 10 10 9 9 7 7 6 6 6 6 8 8 9 10 10 10 11 11 10 10 11 10 11
11 10 11 11 15 19 11 14 14 8 11 12 13 13 20 19 18 17 16 14 13 11 9 8 7 6 7 9 8 6 7 8 9 9 10 10 11 10 9 11 10 10 9 11
18 14 12 2 2 10 15 19 11 11 11 10 12 19 19 18 17 16 13 12 11 10 6 7 6 8 10 8 7 8 7 8 9 10 10 9 12 12 9 9 11 7 9 8
13 21 12 9 9 14 14 14 13 10 13 11 19 16 17 18 17 15 12 10 9 9 7 8 6 5 3 4 7 6 7 8 10 11 11 11 11 9 10 9 8 8 9 8
14 10 11 6 15 15 14 12 13 13 13 16 16 15 17 18 16 13 11 10 9 7 5 5 5 5 8 8 7 6 8 9 10 10 11 10 10 11 10 9 9 9 7 2
2 10 6 10 15 8 15 13 16 16 16 16 18 19 17 16 14 14 11 8 7 6 5 5 7 6 7 6 7 10 10 8 10 9 8 9 9 9 9 9 9 7 5 9
Wind_Direction
206 222 226 233 236 285 315 254 154 153 162 225 151 146 162 167 159 162 165 170 173 174 172 170 178 175 165 170 168 180 185 190 172 197 201 211 248 235 237 258 275 300 145 232
227 222 239 242 240 1 273 295 146 126 136 246 141 158 162 183 170 164 168 173 178 177 170 170 178 176 174 176 173 178 190 195 196 202 216 254 314 245 183 26 344 231 215 4
233 209 234 245 179 238 232 250 144 163 154 253 270 159 160 176 198 165 171 167 184 178 174 171 180 181 185 176 177 181 191 194 191 224 215 225 226 279 43 10 312 288 335 130
228 255 201 220 229 222 228 239 310 165 181 211 221 211 166 172 195 173 176 167 181 176 173 172 179 185 191 181 177 184 186 197 195 205 237 221 214 236 200 192 194 240 241 204
218 239 210 215 218 209 254 22 111 263 282 262 206 245 172 174 187 197 185 178 185 170 173 176 183 185 196 190 182 182 179 188 200 193 222 226 201 249 260 162 199 213 222 198
241 209 210 229 218 247 249 164 270 264 256 236 243 232 152 185 182 198 198 189 184 172 173 169 178 178 195 192 188 177 175 184 193 193 200 233 263 258 310 47 286 294 316 154
223 231 212 217 221 222 224 214 214 220 218 241 232 202 130 139 175 185 191 187 181 178 173 169 169 174 190 198 188 174 173 181 186 202 203 203 222 228 246 208 236 185 278 92
215 214 212 196 222 216 217 233 236 202 251 219 141 194 106 99 107 108 339 193 183 183 183 176 172 171 183 197 188 178 170 177 188 195 204 206 206 210 216 212 238 218 117 235
195 226 194 219 220 213 205 235 263 285 284 267 170 178 134 142 125 137 224 239 209 183 187 186 177 169 174 193 185 178 167 175 186 198 196 197 200 213 210 257 208 252 126 324
246 216 219 193 197 238 235 202 242 251 280 231 247 153 134 126 154 99 51 272 253 201 187 180 182 171 173 180 187 177 167 179 187 197 194 191 190 193 212 233 227 293 358 339
242 256 236 182 195 213 221 235 243 252 242 295 221 63 92 103 104 101 124 271 302 287 192 179 191 168 174 178 185 190 179 175 184 188 188 198 188 189 196 223 185 258 264 264
227 245 253 189 193 223 244 213 230 253 244 285 324 135 114 119 132 129 73 65 339 322 276 231 179 56 105 326 190 193 2 182 167 183 170 202 203 154 140 135 281 258 252 257
203 228 243 251 188 190 230 228 216 236 266 268 255 134 135 121 113 79 58 28 138 287 325 57 75 78 59 251 278 142 189 205 107 87 240 161 221 57 78 41 259 267 276 269
229 215 235 234 231 200 205 225 236 222 219 239 211 152 153 151 133 144 126 106 318 338 284 84 98 115 156 250 73 61 59 52 59 94 41 46 30 5 279 259 329 295 273 269
228 236 226 239 259 224 205 211 235 247 250 229 165 88 110 98 97 95 87 60 357 309 317 8 133 158 190 59 34 41 54 27 13 49 53 80 148 259 310 298 279 274 272 276
205 236 230 244 241 258 242 205 204 228 237 248 270 114 141 130 142 150 133 115 91 335 315 74 77 56 99 103 64 64 57 53 47 24 37 305 251 272 285 295 301 299 293 301
212 223 216 237 244 255 253 243 195 214 212 225 232 127 131 145 135 122 112 99 89 49 49 63 91 78 66 64 57 54 50 35 31 20 2 349 335 327 334 335 326 315 311 315
194 230 214 232 227 244 255 230 241 218 219 200 123 109 101 100 89 86 83 103 94 84 77 73 76 79 76 69 57 50 35 36 8 341 358 357 345 334 329 324 314 313 319 308
186 220 222 231 232 234 248 237 216 237 245 235 119 123 122 115 107 82 79 85 90 87 80 78 78 69 60 54 43 32 35 6 346 13 356 347 342 331 319 312 312 305 302 304
200 187 225 210 247 232 239 213 192 222 239 121 125 133 134 139 163 122 98 97 95 96 97 100 92 87 82 63 37 27 20 359 19 352 341 338 327 318 322 307 302 318 314 312
222 226 200 215 224 239 166 54 168 218 224 143 125 134 136 138 112 121 113 108 107 107 104 97 95 95 82 56 31 21 8 24 359 356 338 327 331 320 307 324 321 317 318 309
194 237 225 215 231 239 161 153 182 134 109 103 109 104 100 113 121 128 120 118 125 122 107 98 93 92 79 51 26 10 23 7 1 336 324 330 320 309 304 302 300 298 307 300
198 213 219 9 266 103 102 117 105 91 84 97 112 114 121 130 132 126 129 123 119 111 88 74 65 73 70 50 21 13 11 359 346 325 323 318 298 292 299 310 307 319 315 302
193 198 221 134 128 119 122 117 124 122 120 122 118 130 138 128 125 129 125 120 105 83 80 72 64 65 58 33 58 24 17 359 344 336 326 307 301 347 325 313 320 334 315 337
161 182 136 99 125 112 118 125 123 110 110 110 117 131 126 121 117 109 100 98 94 93 75 84 73 37 40 24 2 65 21 4 333 324 315 324 344 314 321 334 328 323 346 19
358 165 117 171 147 149 127 120 128 119 120 123 115 110 112 116 125 115 104 98 104 103 80 65 69 34 26 10 14 32 6 346 326 325 331 330 318 325 341 323 331 0 330 324